EW2690 Weather Reports


time (UTC)temp
C
wind
direction
speed
KPH
gust
KPH
rain 1hr
cm
rain 24hr
cm
rain mn
cm
humidity
%
barometer
mb
20260510070032 8 327 0.0 0.0 0.03 1.09 0.18 96 1020.2
20260510063009 8 327 1.6 3.2 0.00 1.07 0.15 95 1019.7
20260510060348 10 326 3.2 4.8 0.00 1.07 0.15 95 1019.7
20260510060023 10 24 1.6 3.2 0.00 1.07 0.15 95 1019.8
20260510053037 11 60 1.6 8.0 0.13 1.07 0.15 94 1019.5
20260510050311 12 328 1.6 12.9 0.15 1.07 0.15 93 1019.1
20260510050028 12 324 3.2 19.3 0.15 1.07 0.15 93 1019.1
20260510043022 13 312 1.6 8.0 0.03 0.94 0.03 91 1018.0
20260510040402 12 314 6.4 9.7 0.00 0.91 0.00 93 1017.6
20260510040028 12 314 6.4 9.7 0.00 0.91 0.00 93 1017.7
20260510033109 12 259 4.8 9.7 0.00 0.91 0.91 95 1016.9
20260510030347 12 180 1.6 3.2 0.00 0.91 0.91 92 1016.6
20260510030024 12 180 0.0 3.2 0.00 0.91 0.91 92 1016.5
20260510023110 12 212 3.2 8.0 0.00 0.91 0.91 91 1016.7
20260510020323 12 244 3.2 9.7 0.00 0.91 0.91 93 1016.7
20260510020040 12 182 4.8 9.7 0.00 0.91 0.91 93 1016.6
20260510013017 12 255 4.8 8.0 0.00 0.94 0.91 93 1016.1
20260510010354 12 273 4.8 11.3 0.00 0.94 0.91 94 1015.9
20260510010030 12 228 3.2 11.3 0.00 0.94 0.91 94 1015.9
20260510003012 12 233 1.6 6.4 0.00 1.02 0.91 95 1015.7
20260510000333 12 261 1.6 12.9 0.08 1.02 0.91 94 1015.5
20260510000023 12 275 1.6 12.9 0.10 1.02 0.91 94 1015.5
20260509233045 13 255 8.0 16.1 0.91 1.02 0.91 95 1015.2
20260509230341 12 279 9.7 37.0 0.84 0.94 0.84 93 1016.1
20260509230032 12 245 8.0 37.0 0.81 0.91 0.81 93 1016.1
20260509223038 20 309 11.3 20.9 0.00 0.10 0.00 61 1014.7
20260509220355 20 211 14.5 25.7 0.00 0.10 0.00 59 1012.7
20260509220030 20 255 12.9 22.5 0.00 0.10 0.00 59 1012.7
20260509213105 21 198 11.3 30.6 0.00 0.10 0.00 53 1012.4
20260509210402 21 265 11.3 19.3 0.00 0.10 0.00 56 1012.8
20260509210104 21 279 12.9 29.0 0.00 0.10 0.00 56 1012.9
20260509210021 21 279 12.9 29.0 0.00 0.10 0.00 56 1012.9
20260509203039 21 156 8.0 22.5 0.00 0.10 0.00 59 1013.4
20260509200313 21 254 14.5 27.4 0.00 0.10 0.00 57 1013.9
20260509200038 21 259 16.1 27.4 0.00 0.10 0.00 57 1013.9
20260509193032 20 206 12.9 27.4 0.00 0.10 0.00 57 1014.2
20260509190355 20 254 12.9 24.1 0.00 0.10 0.00 59 1014.5
20260509190047 20 219 12.9 22.5 0.00 0.10 0.00 57 1014.5
20260509183021 20 273 11.3 20.9 0.00 0.10 0.00 60 1014.7
20260509180336 20 238 9.7 17.7 0.00 0.10 0.00 61 1015.0
20260509180018 20 197 8.0 19.3 0.00 0.10 0.00 62 1015.0
20260509173012 19 243 11.3 27.4 0.00 0.10 0.00 62 1015.2
20260509170345 19 202 6.4 20.9 0.00 0.10 0.00 66 1015.4
20260509170020 19 265 11.3 20.9 0.00 0.10 0.00 65 1015.5
20260509163042 18 194 9.7 14.5 0.00 0.10 0.00 73 1015.7
20260509160317 16 339 4.8 12.9 0.00 0.10 0.00 82 1016.3
20260509160050 16 316 3.2 14.5 0.00 0.10 0.00 83 1016.3
20260509153024 16 291 8.0 16.1 0.00 0.10 0.00 78 1016.4
20260509150429 16 184 4.8 14.5 0.00 0.10 0.00 82 1016.3
20260509150044 16 232 8.0 14.5 0.00 0.10 0.00 81 1016.4
20260509143100 15 238 6.4 16.1 0.00 0.10 0.00 85 1016.6
20260509140422 14 211 4.8 11.3 0.00 0.10 0.00 88 1016.6
20260509140058 14 274 4.8 11.3 0.00 0.10 0.00 89 1016.7
20260509133014 13 192 6.4 11.3 0.00 0.10 0.00 92 1016.6
20260509130313 13 229 4.8 9.7 0.00 0.10 0.00 93 1016.7
20260509130009 13 205 1.6 9.7 0.00 0.10 0.00 93 1016.8
20260509123026 12 216 4.8 11.3 0.00 0.10 0.00 95 1017.0
20260509120404 12 155 3.2 6.4 0.00 0.10 0.00 96 1017.2
20260509120044 12 171 3.2 8.0 0.00 0.10 0.00 96 1017.2
20260509113039 11 132 1.6 4.8 0.00 0.10 0.00 96 1017.1
20260509110339 11 136 1.6 4.8 0.00 0.10 0.00 96 1017.0
20260509103015 11 181 3.2 4.8 0.00 0.10 0.00 96 1016.9
20260509100310 11 217 1.6 6.4 0.00 0.10 0.00 96 1016.9
20260509100009 11 233 1.6 6.4 0.00 0.10 0.00 96 1016.9
20260509093047 11 149 0.0 4.8 0.00 0.10 0.00 95 1017.1
20260509090349 11 185 3.2 6.4 0.00 0.10 0.00 95 1017.2
20260509090039 11 183 3.2 6.4 0.00 0.10 0.00 95 1017.3
20260509083104 11 215 4.8 9.7 0.00 0.10 0.00 95 1017.5
20260509080339 11 246 3.2 6.4 0.00 0.10 0.00 95 1017.4
20260509080038 11 209 1.6 4.8 0.00 0.10 0.00 95 1017.4
20260509073038 11 203 3.2 6.4 0.00 0.10 0.00 95 1017.6
20260509070334 11 228 3.2 14.5 0.00 0.10 0.00 94 1017.6